FW5423 Weather Reports


Display with metric or nautical units.
time (UTC)temp
F
wind
direction
speed
MPH
gust
MPH
rain 1hr
in
rain 24hr
in
rain mn
in
humidity
%
barometer
mb
20260503024037 58 183 3.0 6.0 0.00 0.31 0.31 96 1017.7
20260503023537 58 181 3.0 5.0 0.00 0.31 0.31 96 1017.8
20260503023041 58 178 2.0 6.0 0.00 0.31 0.31 96 1017.7
20260503022536 58 172 1.0 6.0 0.00 0.31 0.31 96 1017.7
20260503022037 58 175 3.0 6.0 0.00 0.31 0.31 96 1017.8
20260503021539 58 191 3.0 6.0 0.00 0.31 0.31 97 1017.8
20260503021036 58 227 2.0 7.0 0.00 0.31 0.31 97 1017.7
20260503020536 57 231 3.0 7.0 0.00 0.31 0.31 97 1017.6
20260503020136 57 189 3.0 7.0 0.00 0.31 0.31 97 1017.6
20260503015636 57 215 4.0 6.0 0.00 0.31 0.31 98 1017.6
20260503015038 57 359 4.0 6.0 0.00 0.31 0.31 98 1017.7
20260503014549 57 359 2.0 7.0 0.00 0.31 0.31 97 1017.8
20260503014038 57 359 4.0 7.0 0.00 0.31 0.31 98 1017.7
20260503013541 57 359 4.0 7.0 0.00 0.31 0.31 97 1017.7
20260503013038 57 359 4.0 7.0 0.00 0.31 0.31 97 1017.8
20260503012541 57 359 3.0 7.0 0.00 0.31 0.31 97 1017.6
20260503012035 57 359 5.0 7.0 0.00 0.31 0.31 97 1017.6
20260503011536 58 359 4.0 6.0 0.00 0.31 0.31 97 1017.5
20260503011035 58 262 3.0 7.0 0.00 0.31 0.31 96 1017.4
20260503010534 58 262 4.0 7.0 0.00 0.31 0.31 96 1017.4
20260503010034 58 251 3.0 12.0 0.00 0.31 0.31 94 1017.3
20260503005636 59 246 4.0 12.0 0.00 0.31 0.31 93 1017.2
20260503005031 59 237 5.0 12.0 0.00 0.31 0.31 91 1017.2
20260503004530 60 220 4.0 9.0 0.00 0.31 0.31 93 1017.1
20260503004030 60 193 5.0 11.0 0.00 0.31 0.31 91 1017.1
20260503003529 60 217 5.0 11.0 0.00 0.31 0.31 90 1017.1
20260503003034 60 250 6.0 10.0 0.00 0.31 0.31 89 1017.1
20260503002528 60 184 5.0 10.0 0.00 0.31 0.31 90 1017.0
20260503002027 60 187 4.0 10.0 0.00 0.31 0.31 90 1016.9
20260503001527 60 128 4.0 10.0 0.00 0.31 0.31 90 1016.7
20260503001027 60 359 5.0 11.0 0.00 0.31 0.31 90 1016.8
20260503000526 60 257 5.0 11.0 0.00 0.31 0.31 91 1016.6
20260503000030 60 206 6.0 12.0 0.00 0.31 0.31 92 1016.7
20260502235629 59 183 4.0 10.0 0.00 0.31 0.31 94 1016.6
20260502235029 59 249 4.0 10.0 0.00 0.31 0.31 94 1016.6
20260502234546 59 252 1.0 10.0 0.00 0.31 0.31 95 1016.4
20260502234027 59 190 5.0 14.0 0.00 0.31 0.31 95 1016.4
20260502233525 59 208 8.0 14.0 0.00 0.31 0.31 95 1016.5
20260502233026 59 201 1.0 12.0 0.00 0.31 0.31 95 1016.4
20260502232526 59 178 4.0 12.0 0.00 0.31 0.31 95 1016.4
20260502232027 59 173 7.0 16.0 0.00 0.31 0.31 95 1016.2
20260502231531 59 208 7.0 16.0 0.00 0.31 0.31 95 1016.3
20260502231027 59 163 7.0 13.0 0.00 0.31 0.31 95 1016.2
20260502230527 59 191 6.0 11.0 0.00 0.31 0.31 95 1016.3
20260502230028 59 359 4.0 10.0 0.00 0.31 0.31 96 1016.3
20260502225626 59 215 6.0 11.0 0.00 0.31 0.31 96 1016.6
20260502225031 59 359 5.0 12.0 0.00 0.31 0.31 96 1016.5
20260502224528 59 204 5.0 10.0 0.00 0.31 0.31 96 1015.7
20260502224031 59 190 6.0 12.0 0.00 0.31 0.31 96 1015.8
20260502223528 58 225 8.0 18.0 0.00 0.31 0.31 96 1016.4
20260502223037 58 245 7.0 18.0 0.00 0.31 0.31 97 1016.3
20260502222528 58 175 9.0 18.0 0.00 0.31 0.31 97 1016.3
20260502222027 58 187 5.0 8.0 0.00 0.31 0.31 97 1015.9
20260502221527 58 359 1.0 7.0 0.00 0.31 0.31 97 1013.5
20260502221027 58 359 2.0 9.0 0.00 0.31 0.31 97 1015.3
20260502220528 58 359 6.0 12.0 0.00 0.31 0.31 97 1015.5
20260502220027 58 359 7.0 12.0 0.00 0.31 0.31 97 1016.0
20260502215627 58 253 6.0 12.0 0.00 0.31 0.31 97 1016.6
20260502215024 58 359 7.0 12.0 0.00 0.31 0.31 97 1016.5
20260502214523 58 258 5.0 9.0 0.00 0.31 0.31 97 1016.3
20260502214023 58 359 6.0 9.0 0.00 0.31 0.31 97 1015.8
20260502213523 58 359 5.0 11.0 0.01 0.31 0.31 97 1015.3
20260502213023 58 359 6.0 17.0 0.02 0.31 0.31 98 1014.7
20260502212523 58 359 9.0 19.0 0.02 0.31 0.31 97 1016.0
20260502212023 58 359 13.0 19.0 0.02 0.31 0.31 97 1016.7
20260502211531 58 260 12.0 18.0 0.02 0.31 0.31 97 1016.5
20260502211022 58 255 8.0 19.0 0.02 0.31 0.31 97 1015.7
20260502210522 58 212 8.0 19.0 0.02 0.31 0.31 97 1014.9
20260502210022 58 255 9.0 16.0 0.02 0.31 0.31 97 1015.2
20260502205622 58 359 13.0 18.0 0.02 0.31 0.31 97 1013.8
20260502205028 58 359 13.0 18.0 0.02 0.31 0.31 97 1013.9
20260502204536 58 359 15.0 18.0 0.02 0.31 0.31 97 1014.5
20260502204027 58 359 11.0 19.0 0.02 0.31 0.31 96 1014.0
20260502203526 58 359 14.0 21.0 0.01 0.31 0.31 96 1014.7
20260502203035 58 359 14.0 21.0 0.01 0.31 0.31 96 1015.6
20260502202523 58 359 13.0 26.0 0.00 0.30 0.30 96 1015.6
20260502202024 58 359 18.0 26.0 0.00 0.30 0.30 95 1015.4
20260502201525 58 270 18.0 25.0 0.00 0.30 0.30 95 1015.0
20260502201024 59 359 16.0 24.0 0.00 0.30 0.30 93 1015.1
20260502200522 59 359 11.0 21.0 0.00 0.30 0.30 92 1015.1
20260502200022 59 359 15.0 19.0 0.00 0.30 0.30 93 1015.5
20260502195624 59 359 15.0 30.0 0.00 0.30 0.30 92 1015.1
20260502195017 59 258 17.0 30.0 0.00 0.30 0.30 91 1014.7
20260502194520 59 359 19.0 29.0 0.00 0.30 0.30 92 1014.9
20260502194017 59 359 15.0 25.0 0.00 0.30 0.30 93 1014.8
20260502193518 59 223 12.0 27.0 0.00 0.30 0.30 94 1015.1
20260502193017 59 359 15.0 27.0 0.00 0.30 0.30 93 1014.9
20260502192516 59 359 17.0 24.0 0.00 0.30 0.30 93 1014.9
20260502192016 59 258 16.0 26.0 0.00 0.30 0.30 94 1014.9
20260502191516 59 359 17.0 26.0 0.00 0.30 0.30 93 1014.8
20260502191016 60 249 15.0 24.0 0.00 0.30 0.30 93 1014.5
20260502190516 60 359 15.0 23.0 0.00 0.30 0.30 92 1014.3
20260502190019 60 359 14.0 23.0 0.00 0.30 0.30 92 1014.3
20260502185616 60 249 15.0 21.0 0.01 0.30 0.30 92 1014.1
20260502185014 60 247 15.0 21.0 0.01 0.30 0.30 92 1014.3
20260502184515 60 359 12.0 19.0 0.01 0.30 0.30 90 1014.0
20260502184014 61 256 10.0 19.0 0.01 0.30 0.30 89 1013.9
20260502183515 61 206 11.0 17.0 0.01 0.30 0.30 89 1013.7
20260502183013 60 235 10.0 18.0 0.01 0.30 0.30 90 1013.6
20260502182516 60 359 10.0 19.0 0.01 0.30 0.30 92 1013.5
20260502182012 60 262 13.0 19.0 0.01 0.30 0.30 92 1013.9
20260502181512 60 359 11.0 21.0 0.01 0.30 0.30 92 1013.3
20260502181012 60 359 12.0 21.0 0.01 0.30 0.30 93 1013.1
20260502180512 60 359 14.0 21.0 0.01 0.30 0.30 94 1013.1
20260502170518 60 359 22.0 31.0 0.00 0.28 0.28 94 1012.7
20260502164010 60 359 18.0 25.0 0.00 0.28 0.28 94 1012.8
20260502163511 60 359 18.0 30.0 0.00 0.28 0.28 94 1012.9
20260502163032 60 359 20.0 30.0 0.00 0.28 0.28 94 1012.7
20260502162510 60 359 18.0 25.0 0.00 0.28 0.28 94 1012.6
20260502162016 60 359 18.0 25.0 0.00 0.28 0.28 95 1012.8
20260502161519 60 359 18.0 27.0 0.00 0.28 0.28 96 1012.9
20260502161008 60 359 18.0 27.0 0.00 0.28 0.28 96 1012.9
20260502160511 60 359 18.0 26.0 0.00 0.28 0.28 96 1013.1
20260502152010 60 359 19.0 28.0 0.01 0.28 0.28 94 1014.0
20260502151510 59 359 17.0 25.0 0.02 0.28 0.28 94 1014.0
20260502151011 59 359 16.0 23.0 0.02 0.28 0.28 94 1014.1
20260502150511 59 256 15.0 27.0 0.02 0.28 0.28 95 1014.1
20260502130558 59 359 14.0 24.0 0.07 0.24 0.24 96 1016.9
20260502123554 59 359 8.0 21.0 0.06 0.22 0.22 95 1016.7
20260502123112 59 359 10.0 20.0 0.06 0.20 0.20 95 1016.7
20260502122550 59 242 12.0 21.0 0.06 0.20 0.20 95 1016.5
20260502122052 59 216 12.0 21.0 0.08 0.20 0.20 95 1016.6
20260502121555 59 223 12.0 23.0 0.13 0.20 0.20 96 1016.5
20260502121048 58 359 12.0 23.0 0.13 0.20 0.20 96 1016.6
20260502120547 59 359 10.0 23.0 0.13 0.18 0.18 97 1016.5
20260502115544 58 216 12.0 25.0 0.17 0.17 0.17 98 1016.0
20260502115043 58 359 11.0 24.0 0.17 0.17 0.17 98 1016.0
20260502114542 58 190 11.0 24.0 0.17 0.17 0.17 98 1015.7
20260502114045 58 186 6.0 18.0 0.17 0.17 0.17 98 1015.6
20260502113538 59 174 4.0 10.0 0.17 0.17 0.17 98 1015.7
20260502113047 59 359 4.0 10.0 0.16 0.16 0.16 98 1015.8
20260502112538 60 359 1.0 7.0 0.14 0.14 0.14 98 1015.9
20260502112036 60 359 2.0 10.0 0.13 0.13 0.13 98 1015.8
20260502111542 61 227 3.0 12.0 0.11 0.11 0.11 98 1015.6
20260502111034 61 79 5.0 12.0 0.06 0.06 0.06 98 1015.6
20260502110533 61 174 3.0 8.0 0.06 0.06 0.06 98 1015.7
20260502110033 62 103 4.0 8.0 0.05 0.05 0.05 98 1015.5
20260502105532 63 125 0.0 3.0 0.01 0.01 0.01 98 1015.9
20260502105031 63 128 0.0 3.0 0.01 0.01 0.01 98 1015.9
20260502104533 63 129 0.0 6.0 0.00 0.00 0.00 98 1015.8
20260502104029 63 359 1.0 8.0 0.00 0.00 0.00 98 1015.7
20260502103529 63 188 4.0 8.0 0.00 0.00 0.00 98 1015.6
20260502103028 63 181 3.0 7.0 0.00 0.00 0.00 98 1015.5
20260502102526 63 174 2.0 4.0 0.00 0.00 0.00 98 1015.5
20260502102026 63 193 0.0 6.0 0.00 0.00 0.00 98 1015.5
20260502101525 63 193 2.0 7.0 0.00 0.00 0.00 97 1015.3
20260502101023 64 184 2.0 11.0 0.00 0.00 0.00 98 1015.3
20260502100523 64 256 1.0 13.0 0.00 0.00 0.00 98 1015.1
20260502091516 64 359 15.0 24.0 0.00 0.00 0.00 97 1012.7
20260502091015 64 359 16.0 26.0 0.00 0.00 0.00 97 1012.6
20260502090515 64 249 18.0 26.0 0.00 0.00 0.00 97 1012.4
20260502071510 64 359 20.0 30.0 0.00 0.00 0.00 97 1012.3
20260502071010 64 359 18.0 28.0 0.00 0.00 0.00 97 1012.3
20260502070517 63 359 18.0 28.0 0.00 0.00 0.00 97 1012.3
20260502070016 64 243 17.0 26.0 0.00 0.00 0.00 97 1012.2
20260502065511 63 359 16.0 26.0 0.00 0.00 0.00 97 1012.2
20260502065013 63 258 18.0 26.0 0.00 0.00 0.00 97 1012.3
20260502064511 64 359 17.0 31.0 0.00 0.00 0.00 97 1012.3
20260502064011 64 359 16.0 31.0 0.00 0.00 0.00 97 1012.3
20260502063510 64 359 20.0 28.0 0.00 0.00 0.00 97 1012.2
20260502063010 64 359 17.0 30.0 0.00 0.00 0.00 97 1012.2
20260502062510 64 359 19.0 30.0 0.00 0.00 0.00 97 1012.1
20260502062012 64 359 17.0 27.0 0.00 0.00 0.00 96 1012.2
20260502061509 64 359 17.0 27.0 0.00 0.00 0.00 96 1012.3
20260502061008 64 256 18.0 26.0 0.00 0.00 0.00 96 1012.4
20260502060513 65 359 20.0 28.0 0.00 0.00 0.00 96 1012.4
20260502060007 64 359 18.0 28.0 0.00 0.00 0.00 96 1012.6
20260502055507 64 359 15.0 25.0 0.00 0.00 0.00 96 1012.7
20260502055008 64 270 16.0 25.0 0.00 0.00 0.00 95 1012.8
20260502054507 65 359 18.0 25.0 0.00 0.00 0.00 95 1012.8
20260502054008 65 359 17.0 24.0 0.00 0.00 0.00 95 1012.7
20260502053507 65 262 17.0 25.0 0.00 0.00 0.00 95 1012.6
20260502053007 65 359 20.0 28.0 0.00 0.01 0.00 95 1012.5
20260502052507 65 359 16.0 28.0 0.00 0.01 0.00 94 1012.6
20260502052008 65 359 18.0 26.0 0.00 0.01 0.00 94 1012.6
20260502051506 65 359 18.0 31.0 0.00 0.01 0.00 94 1012.6
20260502051006 65 359 17.0 31.0 0.00 0.01 0.00 94 1012.8
20260502050506 65 359 17.0 27.0 0.00 0.01 0.00 94 1012.6
20260502050006 65 359 17.0 30.0 0.00 0.01 0.00 94 1012.8
20260502045506 65 359 19.0 28.0 0.00 0.01 0.00 94 1012.8
20260502045005 65 359 19.0 28.0 0.00 0.01 0.00 94 1012.9
20260502044505 66 359 17.0 28.0 0.00 0.01 0.00 94 1012.8
20260502044004 66 359 18.0 28.0 0.00 0.01 0.00 94 1012.7
20260502043504 66 359 19.0 31.0 0.00 0.01 0.00 93 1012.7
20260502043004 66 359 19.0 31.0 0.00 0.01 0.00 93 1012.9
20260502042504 66 359 20.0 27.0 0.00 0.01 0.00 94 1012.9
20260502042005 66 359 20.0 28.0 0.00 0.01 0.00 94 1012.9
20260502041504 66 359 20.0 28.0 0.00 0.01 0.00 94 1013.0
20260502041002 65 359 19.0 27.0 0.00 0.01 0.00 93 1013.0
20260502040502 66 359 20.0 29.0 0.00 0.01 0.00 94 1013.2
20260502040002 65 359 20.0 27.0 0.00 0.01 0.00 94 1013.2
20260502035503 65 359 20.0 30.0 0.00 0.01 0.00 94 1013.4
20260502035003 65 359 20.0 30.0 0.00 0.01 0.00 94 1013.3
20260502034503 65 359 20.0 30.0 0.00 0.01 0.00 94 1013.3
20260502034004 65 359 18.0 30.0 0.00 0.01 0.00 94 1013.3
20260502033502 65 359 22.0 29.0 0.00 0.01 0.00 94 1013.2
20260502033003 65 359 21.0 28.0 0.00 0.01 0.00 94 1013.3
20260502032503 65 359 20.0 28.0 0.00 0.01 0.00 93 1013.2
20260502032003 66 359 20.0 28.0 0.00 0.01 0.00 93 1013.2
20260502031502 65 359 21.0 28.0 0.00 0.01 0.00 94 1013.4
20260502031002 65 359 20.0 29.0 0.00 0.01 0.00 94 1013.6
20260502030502 65 359 19.0 29.0 0.00 0.01 0.00 94 1013.6
20260502030002 65 359 20.0 28.0 0.00 0.01 0.00 95 1013.6
20260502025501 64 359 19.0 26.0 0.00 0.01 0.00 96 1013.7
20260502025001 64 359 19.0 26.0 0.00 0.01 0.00 96 1013.7
20260502024502 64 359 18.0 28.0 0.00 0.01 0.00 96 1013.9